星链-32304 (STARLINK-32304)

导读

**STARLINK-32304卫星**是美国太空探索技术公司(SpaceX)“星链”(Starlink)星座的成员,于2024年8月28日发射入轨,属于星链大规模低轨通信卫星组网部署中的一颗卫星。星链旨在为全球提供高速低延迟宽带互联网接入,STARLINK-32304延续了量产化设计,采用平板构型与霍尔推进器,将服务全球偏远地区网络覆盖与各类通信场景,同时星链也面临太空轨道拥挤、天文观测干扰等争议。

基本信息
目录编号:
60738
目录名称:
STARLINK-32304
国际标识:
2024-152U
轨道中心:
EARTH
卫星名称:
星链-32304 (STARLINK-32304)
卫星全名:
星链-32304 (STARLINK-32304)
卫星状态:
在轨 (已飞行658 天)
发射日期:
2024-08-28 UTC
国别 :
美国 (US)
星等 :
--
轨道信息
数据来源 国际轨道数据 AOE轨道数据
星历时间 2026-06-17T11:16:54+0800
13小时前
查看轨道信息
2026-06-17T04:00:00+0800
20小时前
查看轨道信息
半长轴 6853.369km 6853.336km
偏心率 0.0001198 0.0001284
轨道倾角 53.160° 53.158°
近地点辐角 76.686° 79.817°
升交点赤经 166.719° 168.129°
平近点角 283.427° 48.011°
近地点 474.41km 474.319km
远地点 476.054km 476.079km
周期 94.106分钟 94.105分钟
每日圈数 15.301945 15.302056
详细信息
卫星平台:
Starlink v2.0 mini
运营商:
太空探索技术公司
运营商所在国:
美国
制造商(研发单位):
太空探索技术公司
制造商所在国:
美国
使用方式:
暂无
卫星简介
星链(Starlink)计划是由太空探索技术公司(SpaceX)提出的一个巨型低轨卫星互联网星座项目,计划在2019年至2024年间在太空搭建由约1.2万颗卫星组成的“星链”网络,其中1584颗将部署在地球上空550千米处的近地轨道,并从2020年开始工作。该卫星仍在工作。
2D轨道图
3D轨道图
轨道高度分析图
轨道倾角分析图
轨道综合分析图
查看轨道综合分析图